Total_Precipitation_Accumulation
0.07 0.13 0.39 0.49 0.47 0.43 0.44 0.46 0.45 0.41 0.41 0.47 0.50 0.53 0.53 0.52 0.52 0.50 0.47 0.49 0.52 0.51 0.54 0.60 0.63 0.63 0.58 0.49 0.42 0.38 0.34 0.34 0.34 0.36 0.38 0.43 0.44 0.43 0.41 0.36 0.33 0.39 0.52
0.08 0.13 0.32 0.41 0.42 0.43 0.46 0.46 0.44 0.39 0.39 0.45 0.49 0.53 0.52 0.51 0.51 0.51 0.51 0.53 0.55 0.56 0.57 0.58 0.57 0.56 0.55 0.47 0.41 0.37 0.34 0.31 0.25 0.23 0.23 0.26 0.37 0.47 0.45 0.41 0.40 0.50 0.52
0.07 0.10 0.24 0.35 0.38 0.42 0.46 0.44 0.41 0.37 0.35 0.39 0.46 0.54 0.53 0.50 0.49 0.51 0.52 0.54 0.58 0.62 0.62 0.58 0.56 0.56 0.48 0.43 0.42 0.37 0.35 0.29 0.21 0.16 0.14 0.20 0.36 0.50 0.47 0.46 0.46 0.52 0.53
0.04 0.08 0.16 0.28 0.37 0.43 0.45 0.45 0.41 0.39 0.38 0.40 0.45 0.52 0.56 0.51 0.47 0.48 0.51 0.54 0.60 0.62 0.64 0.61 0.57 0.58 0.48 0.42 0.40 0.37 0.36 0.31 0.21 0.14 0.08 0.17 0.38 0.61 0.62 0.59 0.55 0.55 0.55
0.05 0.08 0.16 0.28 0.36 0.44 0.48 0.49 0.46 0.44 0.44 0.47 0.49 0.53 0.56 0.58 0.54 0.50 0.45 0.49 0.59 0.60 0.62 0.63 0.60 0.59 0.52 0.45 0.41 0.40 0.42 0.37 0.22 0.11 0.07 0.12 0.34 0.69 0.73 0.66 0.60 0.57 0.53
0.05 0.08 0.16 0.29 0.39 0.46 0.50 0.53 0.48 0.48 0.50 0.50 0.52 0.57 0.61 0.61 0.59 0.56 0.51 0.48 0.48 0.52 0.58 0.62 0.62 0.63 0.59 0.49 0.47 0.49 0.51 0.45 0.22 0.08 0.08 0.12 0.31 0.69 0.77 0.69 0.61 0.56 0.54
0.06 0.09 0.17 0.31 0.43 0.49 0.53 0.57 0.54 0.55 0.57 0.56 0.55 0.59 0.62 0.64 0.65 0.62 0.57 0.50 0.44 0.43 0.47 0.54 0.56 0.58 0.59 0.53 0.52 0.56 0.61 0.46 0.19 0.14 0.13 0.15 0.31 0.76 0.95 0.81 0.68 0.59 0.58
0.07 0.11 0.20 0.36 0.46 0.54 0.60 0.64 0.62 0.62 0.67 0.67 0.67 0.65 0.65 0.65 0.64 0.63 0.58 0.53 0.48 0.46 0.47 0.50 0.52 0.55 0.58 0.57 0.55 0.58 0.60 0.39 0.19 0.18 0.18 0.21 0.42 0.90 1.08 1.06 0.86 0.67 0.60
0.09 0.12 0.21 0.34 0.45 0.57 0.67 0.70 0.70 0.68 0.71 0.71 0.71 0.69 0.68 0.69 0.72 0.73 0.67 0.59 0.54 0.53 0.52 0.49 0.47 0.46 0.49 0.53 0.55 0.52 0.47 0.34 0.19 0.24 0.23 0.32 0.44 0.90 1.08 1.16 1.04 0.83 0.68
0.14 0.17 0.25 0.37 0.46 0.54 0.63 0.71 0.70 0.68 0.73 0.75 0.76 0.75 0.73 0.73 0.76 0.78 0.71 0.62 0.57 0.55 0.51 0.47 0.46 0.42 0.39 0.39 0.40 0.38 0.31 0.26 0.19 0.25 0.38 0.37 0.45 0.93 1.14 1.19 1.09 0.99 0.87
0.19 0.22 0.30 0.44 0.53 0.57 0.60 0.61 0.71 0.75 0.79 0.79 0.80 0.76 0.74 0.69 0.65 0.62 0.59 0.60 0.61 0.59 0.53 0.50 0.49 0.44 0.38 0.31 0.28 0.26 0.22 0.17 0.19 0.30 0.35 0.37 0.56 1.00 1.18 1.19 1.12 1.04 1.00
0.19 0.23 0.30 0.44 0.53 0.61 0.62 0.66 0.77 0.78 0.78 0.77 0.73 0.76 0.73 0.66 0.61 0.56 0.56 0.56 0.59 0.61 0.61 0.59 0.55 0.47 0.38 0.29 0.30 0.31 0.19 0.14 0.15 0.17 0.19 0.27 0.58 1.04 1.21 1.17 1.18 1.16 1.14
0.20 0.26 0.32 0.44 0.55 0.64 0.67 0.68 0.74 0.76 0.77 0.79 0.80 0.79 0.79 0.78 0.75 0.72 0.70 0.70 0.63 0.58 0.59 0.60 0.60 0.49 0.43 0.37 0.37 0.33 0.24 0.20 0.16 0.13 0.13 0.20 0.37 0.66 0.99 1.13 1.20 1.24 1.26
0.27 0.33 0.37 0.46 0.58 0.65 0.72 0.75 0.73 0.74 0.74 0.75 0.81 0.84 0.83 0.80 0.77 0.75 0.72 0.68 0.65 0.63 0.61 0.58 0.56 0.48 0.42 0.36 0.35 0.30 0.27 0.24 0.20 0.18 0.14 0.16 0.24 0.35 0.59 0.86 1.04 1.19 1.30
0.30 0.36 0.42 0.51 0.57 0.63 0.71 0.78 0.81 0.77 0.73 0.70 0.75 0.80 0.81 0.80 0.75 0.70 0.66 0.63 0.60 0.59 0.56 0.51 0.46 0.41 0.35 0.33 0.32 0.29 0.28 0.26 0.26 0.24 0.20 0.20 0.20 0.24 0.37 0.58 0.84 1.08 1.28
0.28 0.34 0.42 0.52 0.62 0.67 0.70 0.73 0.76 0.79 0.77 0.73 0.72 0.71 0.74 0.76 0.75 0.73 0.70 0.69 0.63 0.58 0.56 0.53 0.49 0.44 0.37 0.33 0.29 0.27 0.26 0.25 0.26 0.27 0.25 0.26 0.24 0.23 0.30 0.44 0.64 0.95 1.21
0.29 0.37 0.49 0.57 0.69 0.77 0.76 0.75 0.76 0.78 0.80 0.77 0.74 0.73 0.72 0.70 0.71 0.75 0.76 0.72 0.66 0.59 0.56 0.54 0.54 0.53 0.47 0.40 0.34 0.28 0.25 0.23 0.22 0.22 0.25 0.28 0.29 0.28 0.29 0.37 0.47 0.70 1.02
0.37 0.41 0.52 0.61 0.70 0.78 0.83 0.85 0.80 0.78 0.81 0.82 0.78 0.78 0.76 0.73 0.73 0.77 0.80 0.76 0.70 0.66 0.62 0.58 0.54 0.53 0.49 0.45 0.41 0.37 0.32 0.27 0.22 0.20 0.20 0.24 0.30 0.33 0.32 0.33 0.39 0.52 0.81
0.36 0.40 0.53 0.63 0.64 0.70 0.83 0.89 0.88 0.86 0.86 0.86 0.84 0.81 0.79 0.75 0.73 0.77 0.82 0.82 0.79 0.77 0.72 0.67 0.60 0.53 0.48 0.44 0.41 0.38 0.34 0.31 0.29 0.27 0.23 0.21 0.23 0.30 0.35 0.37 0.39 0.41 0.57
0.38 0.45 0.53 0.65 0.66 0.69 0.81 0.97 0.98 0.94 0.93 0.91 0.86 0.79 0.79 0.78 0.74 0.72 0.76 0.80 0.83 0.81 0.76 0.70 0.65 0.56 0.49 0.45 0.44 0.41 0.34 0.29 0.26 0.25 0.23 0.22 0.20 0.22 0.32 0.39 0.42 0.39 0.42
0.36 0.42 0.50 0.63 0.66 0.74 0.81 0.89 0.94 0.88 0.88 0.89 0.84 0.81 0.77 0.80 0.82 0.78 0.75 0.75 0.79 0.79 0.72 0.65 0.64 0.62 0.58 0.56 0.59 0.54 0.46 0.38 0.32 0.28 0.24 0.21 0.19 0.18 0.22 0.34 0.43 0.42 0.38
0.31 0.33 0.39 0.55 0.66 0.70 0.73 0.75 0.78 0.80 0.82 0.85 0.81 0.84 0.84 0.82 0.86 0.84 0.77 0.77 0.76 0.75 0.72 0.66 0.62 0.62 0.61 0.61 0.64 0.67 0.59 0.53 0.43 0.33 0.30 0.26 0.22 0.21 0.23 0.27 0.38 0.44 0.43
0.27 0.29 0.33 0.44 0.60 0.68 0.73 0.85 0.88 0.95 1.02 1.01 0.93 0.85 0.83 0.85 0.85 0.89 0.84 0.77 0.77 0.77 0.74 0.67 0.61 0.60 0.60 0.56 0.56 0.75 0.78 0.57 0.38 0.30 0.28 0.28 0.26 0.25 0.25 0.27 0.33 0.40 0.46
0.23 0.26 0.31 0.45 0.58 0.66 0.73 0.84 0.88 0.87 0.91 0.91 0.85 0.81 0.77 0.79 0.84 0.83 0.86 0.84 0.79 0.77 0.73 0.69 0.64 0.61 0.63 0.63 0.58 0.58 0.63 0.63 0.61 0.42 0.27 0.26 0.29 0.30 0.29 0.28 0.31 0.36 0.43
0.23 0.27 0.31 0.42 0.58 0.70 0.77 0.78 0.82 0.80 0.75 0.80 0.90 0.89 0.86 0.82 0.83 0.83 0.82 0.85 0.83 0.78 0.73 0.73 0.73 0.71 0.70 0.69 0.64 0.57 0.54 0.50 0.51 0.61 0.42 0.29 0.31 0.31 0.33 0.35 0.35 0.38 0.42
0.23 0.30 0.37 0.42 0.52 0.69 0.81 0.82 0.79 0.78 0.76 0.81 0.89 0.95 0.96 0.92 0.86 0.82 0.81 0.81 0.81 0.78 0.71 0.69 0.71 0.75 0.76 0.72 0.66 0.61 0.62 0.61 0.53 0.58 0.53 0.37 0.35 0.33 0.35 0.40 0.44 0.45 0.45